• In Deutschland
  • Länderverzeichnis
  • Für 7 Tage
  • Wassertemperatur
  • Satellitenkarten
  • Wetterkarte
  • Widgets
  • user-avatar
    Anmelden

    Stündliche Wetter Titisee

    Heute, 13 Dezember, Mittwoch

    Zeit Temperatur Niederschläge Wind Luftdruck Luftfeuchtigkeit
    00:00 -6°C° 0 mm 2 m/S 679 mmHg 92%
    01:00 -6°C° 0 mm 2 m/S 679 mmHg 93%
    02:00 -6°C° 0 mm 2 m/S 679 mmHg 92%
    03:00 -6°C° 0 mm 2 m/S 679 mmHg 91%
    04:00 -7°C° 0 mm 2 m/S 679 mmHg 90%
    05:00 -7°C° 0 mm 2 m/S 679 mmHg 88%
    06:00 -7°C° 0 mm 2 m/S 679 mmHg 87%
    07:00 -7°C° 0 mm 2 m/S 679 mmHg 85%
    08:00 -7°C° 0 mm 3 m/S 678 mmHg 81%
    09:00 -6°C° 0 mm 3 m/S 678 mmHg 76%
    10:00 -5°C° 0 mm 3 m/S 678 mmHg 72%
    11:00 -4°C° 0 mm 4 m/S 677 mmHg 68%
    12:00 -3°C° 0 mm 4 m/S 676 mmHg 63%
    13:00 -1°C° 0 mm 5 m/S 675 mmHg 59%
    14:00 -2°C° 0,3 mm 4 m/S 675 mmHg 63%
    15:00 -2°C° 0,3 mm 4 m/S 674 mmHg 66%
    16:00 -2°C° 0,3 mm 4 m/S 673 mmHg 70%
    17:00 -2°C° 0,5 mm 4 m/S 673 mmHg 73%
    18:00 -2°C° 0,5 mm 5 m/S 673 mmHg 76%
    19:00 -1°C° 0,5 mm 5 m/S 672 mmHg 80%
    20:00 -1°C° 0,5 mm 5 m/S 671 mmHg 81%
    21:00 -1°C° 0,5 mm 5 m/S 670 mmHg 83%
    22:00 -1°C° 0,5 mm 5 m/S 669 mmHg 84%
    23:00 -1°C° 1,1 mm 6 m/S 669 mmHg 84%

    Morgen, 14 Dezember, Donnerstag

    Zeit Temperatur Niederschläge Wind Luftdruck Luftfeuchtigkeit
    00:00 -1°C° 1,1 mm 7 m/S 669 mmHg 85%
    01:00 0°C° 1,1 mm 8 m/S 669 mmHg 85%
    02:00 0°C° 0,7 mm 8 m/S 669 mmHg 84%
    03:00 0°C° 0,7 mm 8 m/S 669 mmHg 84%
    04:00 0°C° 0,7 mm 8 m/S 670 mmHg 83%
    05:00 -1°C° 0,7 mm 8 m/S 670 mmHg 82%
    06:00 -2°C° 0,7 mm 8 m/S 671 mmHg 82%
    07:00 -3°C° 0,7 mm 7 m/S 672 mmHg 81%
    08:00 -3°C° 0,3 mm 7 m/S 672 mmHg 81%
    09:00 -3°C° 0,3 mm 6 m/S 672 mmHg 80%
    10:00 -4°C° 0,3 mm 5 m/S 672 mmHg 79%
    11:00 -2°C° 0,1 mm 5 m/S 672 mmHg 79%
    12:00 -2°C° 0,1 mm 5 m/S 672 mmHg 79%
    13:00 -2°C° 0,1 mm 5 m/S 671 mmHg 79%
    14:00 -2°C° 0,2 mm 5 m/S 671 mmHg 80%
    15:00 -2°C° 0,2 mm 4 m/S 670 mmHg 82%
    16:00 -2°C° 0,2 mm 4 m/S 669 mmHg 83%
    17:00 -2°C° 1,8 mm 4 m/S 668 mmHg 86%
    18:00 -2°C° 1,8 mm 4 m/S 668 mmHg 89%
    19:00 -1°C° 1,8 mm 3 m/S 667 mmHg 91%
    20:00 -1°C° 2,6 mm 4 m/S 666 mmHg 92%
    21:00 -1°C° 2,6 mm 4 m/S 666 mmHg 92%
    22:00 -1°C° 2,6 mm 4 m/S 666 mmHg 92%
    23:00 -1°C° 2,3 mm 4 m/S 666 mmHg 92%

    übermorgen, 15 Dezember, Freitag

    Zeit Temperatur Niederschläge Wind Luftdruck Luftfeuchtigkeit
    00:00 -1°C° 2,3 mm 5 m/S 666 mmHg 91%
    01:00 -1°C° 2,3 mm 5 m/S 666 mmHg 91%
    02:00 -2°C° 0,9 mm 5 m/S 666 mmHg 89%
    03:00 -2°C° 0,9 mm 5 m/S 667 mmHg 88%
    04:00 -4°C° 0,9 mm 5 m/S 667 mmHg 86%
    05:00 -3°C° 0 mm 4 m/S 667 mmHg 87%
    06:00 -4°C° 0 mm 4 m/S 668 mmHg 88%
    07:00 -4°C° 0 mm 3 m/S 668 mmHg 89%
    08:00 -4°C° 0 mm 3 m/S 668 mmHg 88%
    09:00 -4°C° 0 mm 3 m/S 669 mmHg 87%
    10:00 -3°C° 0 mm 4 m/S 669 mmHg 86%
    11:00 -3°C° 0 mm 4 m/S 669 mmHg 84%
    12:00 -2°C° 0 mm 4 m/S 669 mmHg 81%
    13:00 -2°C° 0 mm 4 m/S 668 mmHg 79%
    14:00 -2°C° 0 mm 4 m/S 668 mmHg 81%
    15:00 -2°C° 0 mm 3 m/S 668 mmHg 82%
    16:00 -2°C° 0 mm 3 m/S 668 mmHg 83%
    17:00 -4°C° 0,1 mm 3 m/S 668 mmHg 84%
    18:00 -4°C° 0,1 mm 3 m/S 668 mmHg 85%
    19:00 -3°C° 0,1 mm 2 m/S 668 mmHg 86%
    20:00 -4°C° 0,2 mm 2 m/S 668 mmHg 87%
    21:00 -4°C° 0,2 mm 2 m/S 668 mmHg 87%
    22:00 -4°C° 0,2 mm 2 m/S 669 mmHg 88%
    23:00 -4°C° 0,4 mm 2 m/S 669 mmHg 89%

    16 Dezember, Samstag

    Zeit Temperatur Niederschläge Wind Luftdruck Luftfeuchtigkeit
    00:00 -4°C° 0,4 mm 2 m/S 669 mmHg 91%
    01:00 -3°C° 0,4 mm 2 m/S 670 mmHg 92%
    02:00 -4°C° 0,2 mm 3 m/S 670 mmHg 92%
    03:00 -4°C° 0,2 mm 3 m/S 671 mmHg 92%
    04:00 -4°C° 0,2 mm 3 m/S 671 mmHg 92%
    05:00 -4°C° 0,3 mm 3 m/S 672 mmHg 91%
    06:00 -4°C° 0,3 mm 3 m/S 672 mmHg 91%
    07:00 -5°C° 0,3 mm 3 m/S 673 mmHg 91%
    08:00 -4°C° 0,5 mm 3 m/S 673 mmHg 91%
    09:00 -4°C° 0,5 mm 3 m/S 674 mmHg 91%
    10:00 -4°C° 0,5 mm 3 m/S 675 mmHg 91%
    11:00 -4°C° 0,2 mm 3 m/S 675 mmHg 88%
    12:00 -4°C° 0,2 mm 3 m/S 675 mmHg 85%
    13:00 -4°C° 0,2 mm 3 m/S 676 mmHg 83%
    14:00 -4°C° 0,1 mm 3 m/S 676 mmHg 84%
    15:00 -5°C° 0,1 mm 3 m/S 677 mmHg 85%
    16:00 -4°C° 0,1 mm 2 m/S 677 mmHg 86%
    17:00 -5°C° 0,1 mm 2 m/S 677 mmHg 88%
    18:00 -6°C° 0,1 mm 2 m/S 678 mmHg 89%
    19:00 -6°C° 0,1 mm 2 m/S 678 mmHg 91%
    20:00 -6°C° 0 mm 2 m/S 679 mmHg 91%
    21:00 -6°C° 0 mm 2 m/S 679 mmHg 92%
    22:00 -7°C° 0 mm 2 m/S 680 mmHg 92%
    23:00 -7°C° 0,1 mm 2 m/S 680 mmHg 93%

    17 Dezember, Sonntag

    Zeit Temperatur Niederschläge Wind Luftdruck Luftfeuchtigkeit
    00:00 -7°C° 0,1 mm 2 m/S 681 mmHg 93%
    01:00 -7°C° 0,1 mm 2 m/S 681 mmHg 93%
    02:00 -7°C° 0,1 mm 2 m/S 681 mmHg 93%
    03:00 -7°C° 0,1 mm 2 m/S 682 mmHg 93%
    04:00 -7°C° 0,1 mm 2 m/S 682 mmHg 92%
    05:00 -7°C° 0,1 mm 2 m/S 682 mmHg 92%
    06:00 -6°C° 0,1 mm 1 m/S 683 mmHg 92%
    07:00 -6°C° 0,1 mm 1 m/S 683 mmHg 92%
    08:00 -6°C° 0,1 mm 1 m/S 684 mmHg 91%
    09:00 -4°C° 0,1 mm 1 m/S 684 mmHg 90%
    10:00 -4°C° 0,1 mm 1 m/S 685 mmHg 89%
    11:00 -5°C° 0 mm 2 m/S 685 mmHg 87%
    12:00 -4°C° 0 mm 2 m/S 685 mmHg 86%
    13:00 -4°C° 0 mm 2 m/S 686 mmHg 84%
    14:00 -4°C° 0 mm 2 m/S 686 mmHg 86%
    15:00 -2°C° 0 mm 1 m/S 686 mmHg 87%
    16:00 -2°C° 0 mm 1 m/S 686 mmHg 89%
    17:00 -3°C° 0 mm 1 m/S 687 mmHg 90%
    18:00 -3°C° 0 mm 1 m/S 687 mmHg 92%
    19:00 -4°C° 0 mm 1 m/S 687 mmHg 93%
    20:00 -4°C° 0 mm 1 m/S 688 mmHg 93%
    21:00 -6°C° 0 mm 1 m/S 688 mmHg 93%
    22:00 -6°C° 0 mm 1 m/S 688 mmHg 93%
    23:00 -6°C° 0 mm 1 m/S 688 mmHg 93%

    18 Dezember, Montag

    Zeit Temperatur Niederschläge Wind Luftdruck Luftfeuchtigkeit
    00:00 -8°C° 0 mm 2 m/S 687 mmHg 92%
    01:00 -8°C° 0 mm 2 m/S 687 mmHg 92%
    02:00 -8°C° 0 mm 2 m/S 687 mmHg 91%
    03:00 -8°C° 0 mm 2 m/S 687 mmHg 89%
    04:00 -8°C° 0 mm 2 m/S 687 mmHg 88%
    05:00 -8°C° 0,1 mm 3 m/S 687 mmHg 87%
    06:00 -7°C° 0,1 mm 3 m/S 687 mmHg 87%
    07:00 -7°C° 0,1 mm 3 m/S 687 mmHg 87%
    08:00 -6°C° 0,3 mm 3 m/S 686 mmHg 87%
    09:00 -7°C° 0,3 mm 4 m/S 686 mmHg 88%
    10:00 -5°C° 0,3 mm 4 m/S 685 mmHg 88%
    11:00 -5°C° 0,9 mm 4 m/S 685 mmHg 89%
    12:00 -4°C° 0,9 mm 4 m/S 684 mmHg 90%
    13:00 -5°C° 0,9 mm 5 m/S 683 mmHg 90%
    14:00 -4°C° 1 mm 4 m/S 683 mmHg 91%
    15:00 -4°C° 1 mm 4 m/S 683 mmHg 92%
    16:00 -4°C° 1 mm 4 m/S 682 mmHg 92%
    17:00 -4°C° 0,3 mm 3 m/S 682 mmHg 93%
    18:00 -4°C° 0,3 mm 3 m/S 683 mmHg 94%
    19:00 -4°C° 0,3 mm 3 m/S 683 mmHg 94%
    20:00 -3°C° 0,1 mm 2 m/S 683 mmHg 95%
    21:00 -3°C° 0,1 mm 2 m/S 683 mmHg 95%
    22:00 -3°C° 0,1 mm 2 m/S 683 mmHg 96%
    23:00 -3°C° 0,3 mm 2 m/S 683 mmHg 96%
    Mehr zeigen